Probability
10 13 16 10 16 10 10 10 13 10 13 10 13 16 10 6 6 6 6 13 13 13 10 10 10 6 6 6 3 0 6 6 3 6 3 0 0 0 0 0 3 6 6
10 19 19 23 23 23 16 19 13 13 16 16 13 10 10 10 10 10 6 10 13 13 10 10 10 10 3 3 3 0 3 6 3 3 3 3 3 3 3 3 3 3 6
10 16 26 19 16 16 16 19 13 13 19 16 13 13 13 13 16 13 10 10 13 13 13 10 10 6 3 3 3 6 3 3 3 6 6 6 6 6 3 3 3 3 10
6 13 19 23 23 19 19 19 23 19 16 16 13 16 19 19 19 16 16 13 13 16 13 10 6 6 6 3 0 3 3 3 6 6 6 6 6 6 6 3 0 0 3
3 6 16 16 19 19 19 23 16 16 19 16 19 16 16 19 19 16 13 10 10 10 10 6 6 6 6 3 3 3 3 6 6 6 6 6 6 3 3 6 3 3 3
6 13 16 13 10 16 29 16 16 16 19 19 16 13 13 16 13 13 13 13 13 16 16 19 10 3 6 10 6 6 6 6 6 6 6 6 6 6 3 3 3 3 6
10 6 10 13 16 26 26 19 13 13 13 16 16 10 10 10 13 16 16 16 16 16 10 10 13 10 10 3 6 6 6 6 6 6 6 6 6 6 10 6 10 3 3
3 6 10 16 19 26 26 26 19 16 16 16 16 13 13 13 16 16 16 16 16 10 10 10 13 13 10 10 10 10 10 10 10 13 13 10 13 10 3 6 10 6 6
6 10 13 16 19 26 26 23 23 16 16 16 16 16 16 19 19 19 16 16 13 13 13 16 16 19 10 10 10 16 16 13 13 16 16 16 13 13 13 13 13 10 13
10 13 10 13 26 26 23 23 19 19 16 16 16 23 16 19 19 19 16 10 13 10 13 13 16 16 13 13 13 16 16 16 16 19 23 16 16 16 16 16 10 10 13
10 10 10 13 23 23 23 19 19 19 16 19 23 23 16 16 19 19 13 13 13 10 10 13 10 13 10 13 16 19 19 23 23 19 19 10 16 16 13 6 3 6 3
6 6 6 13 13 16 19 23 26 26 23 19 19 16 16 16 19 23 23 13 10 6 6 6 13 13 13 19 13 16 23 26 19 19 16 13 13 16 16 10 3 6 3
6 6 13 16 16 13 16 16 19 26 19 19 23 23 16 13 19 16 13 10 10 13 10 13 13 10 13 16 13 13 13 16 16 16 13 13 13 13 16 13 10 10 6
6 6 13 16 10 10 10 19 16 26 26 19 19 23 23 19 16 13 13 13 16 16 13 10 6 6 10 16 13 13 16 13 16 16 13 16 16 16 13 6 10 13 10
6 13 19 13 6 10 13 16 19 19 26 23 19 19 19 16 13 13 13 13 13 13 13 13 10 10 10 13 13 16 16 13 13 13 13 13 13 10 10 6 10 6 6
10 16 16 16 16 13 10 16 19 19 19 19 19 23 23 19 19 16 13 10 13 16 13 16 16 19 19 13 13 13 16 16 19 16 6 6 6 6 3 3 3 3 6
10 13 16 16 10 13 13 16 19 19 19 19 19 16 19 13 16 19 16 16 19 16 13 13 16 19 19 13 3 3 6 13 13 10 10 10 10 6 6 6 6 3 3
10 10 13 10 6 6 10 13 19 19 23 23 19 23 19 16 16 16 19 16 16 16 16 16 19 23 23 10 3 3 6 6 13 10 10 13 13 13 3 3 3 3 3
6 0 6 3 3 6 6 10 16 19 26 26 23 23 23 19 19 23 23 23 19 19 19 19 19 19 23 13 6 3 16 16 16 13 13 13 6 3 0 0 0 0 0
3 3 3 3 3 6 6 10 13 16 26 26 23 26 23 23 23 23 23 16 16 19 19 19 19 19 16 16 13 10 13 16 13 10 6 6 0 0 0 0 0 0 3
3 6 10 6 10 6 6 13 13 16 19 23 19 19 19 19 19 26 19 16 16 16 16 16 16 16 13 13 10 6 13 13 13 6 6 3 3 0 0 0 0 0 0
6 6 10 13 13 13 10 16 16 13 16 19 23 16 19 19 19 23 19 16 19 16 13 16 16 10 10 10 10 6 3 6 6 6 3 3 0 0 0 0 0 0 0
6 10 6 10 16 16 13 13 16 16 13 13 19 16 16 19 23 23 23 19 16 19 16 16 16 10 10 6 6 6 3 3 3 3 0 0 0 0 0 0 0 0 0
6 6 6 6 13 16 13 13 13 13 13 16 16 13 13 16 23 23 23 19 19 13 13 16 16 10 6 6 6 3 3 0 0 0 0 0 0 0 0 0 0 0 0
6 6 10 10 13 16 13 13 10 10 10 10 13 13 13 13 19 19 19 23 19 19 16 13 10 6 3 3 3 3 3 0 0 0 0 0 0 0 0 0 0 0 0
6 6 6 6 10 10 10 10 10 10 10 10 13 16 16 16 16 16 13 0 6 3 6 6 3 3 3 0 0 0 0 0 0 0 0 0 0 0 0 0 0 0 0
Height
5903 5902 5901 5899 5898 5897 5897 5896 5896 5895 5895 5894 5894 5893 5893 5892 5891 5891 5890 5889 5888 5887 5886 5886 5885 5883 5882 5881 5881 5880 5879 5878 5878 5877 5877 5876 5875 5874 5873 5873 5872 5871 5870
5904 5902 5901 5900 5899 5898 5897 5897 5896 5896 5896 5895 5894 5893 5893 5892 5891 5891 5890 5889 5888 5887 5886 5885 5884 5883 5882 5880 5879 5878 5877 5877 5876 5876 5875 5875 5874 5873 5872 5871 5870 5869 5868
5904 5903 5902 5900 5899 5899 5898 5897 5896 5896 5895 5894 5893 5893 5892 5892 5891 5890 5889 5888 5887 5886 5885 5884 5883 5882 5881 5879 5878 5877 5876 5875 5874 5874 5873 5872 5872 5871 5870 5869 5868 5867 5865
5903 5903 5901 5900 5899 5898 5898 5897 5896 5896 5895 5894 5893 5892 5892 5891 5890 5890 5889 5888 5886 5885 5884 5883 5882 5881 5879 5878 5877 5876 5875 5873 5872 5871 5870 5870 5869 5868 5867 5866 5865 5864 5863
5903 5902 5901 5900 5899 5898 5897 5897 5896 5895 5894 5894 5893 5892 5891 5890 5890 5889 5888 5887 5885 5884 5883 5882 5880 5879 5878 5876 5875 5874 5873 5871 5870 5869 5868 5867 5866 5864 5864 5863 5862 5861 5860
5902 5901 5900 5899 5898 5898 5897 5896 5895 5894 5894 5893 5892 5891 5890 5889 5888 5888 5886 5885 5884 5883 5881 5880 5879 5877 5876 5874 5873 5872 5870 5869 5867 5866 5865 5864 5863 5862 5861 5860 5859 5858 5856
5901 5900 5899 5898 5897 5897 5896 5895 5894 5893 5892 5891 5890 5889 5888 5887 5887 5886 5885 5883 5882 5881 5880 5878 5877 5875 5873 5872 5870 5869 5868 5866 5865 5863 5862 5860 5859 5858 5857 5856 5855 5854 5853
5899 5898 5898 5897 5896 5896 5895 5894 5892 5891 5890 5889 5888 5887 5887 5886 5885 5884 5883 5882 5880 5879 5877 5876 5874 5872 5870 5869 5867 5866 5865 5863 5862 5860 5859 5857 5856 5854 5853 5852 5851 5850 5850
5897 5897 5896 5896 5895 5894 5893 5892 5890 5889 5888 5887 5887 5886 5885 5884 5883 5882 5880 5879 5878 5876 5875 5873 5871 5869 5867 5866 5864 5863 5861 5860 5858 5857 5855 5854 5852 5850 5849 5848 5847 5847 5846
5895 5894 5894 5893 5892 5891 5890 5889 5888 5887 5886 5885 5884 5883 5882 5881 5880 5879 5877 5876 5874 5873 5871 5869 5868 5866 5864 5863 5861 5860 5858 5856 5855 5854 5852 5850 5848 5847 5845 5844 5843 5842 5841
5892 5891 5891 5890 5889 5889 5888 5887 5886 5885 5884 5882 5881 5880 5879 5878 5877 5875 5874 5873 5871 5869 5868 5866 5864 5862 5861 5859 5858 5856 5854 5853 5851 5849 5848 5846 5844 5843 5841 5839 5838 5837 5836
5889 5889 5888 5887 5887 5886 5885 5884 5883 5882 5880 5879 5878 5876 5875 5874 5873 5872 5870 5869 5867 5866 5864 5862 5860 5859 5857 5855 5853 5852 5850 5849 5847 5845 5843 5841 5840 5838 5836 5834 5833 5832 5830
5886 5886 5885 5884 5884 5883 5881 5880 5879 5877 5876 5876 5875 5873 5871 5870 5869 5868 5867 5865 5864 5862 5860 5858 5856 5854 5852 5850 5849 5847 5846 5844 5842 5840 5838 5836 5834 5832 5830 5829 5827 5826 5824
5882 5882 5882 5881 5880 5879 5877 5876 5874 5872 5872 5872 5871 5869 5868 5867 5866 5864 5863 5861 5859 5858 5856 5854 5852 5850 5847 5845 5843 5842 5840 5839 5837 5835 5832 5830 5828 5826 5824 5822 5820 5819 5817
5879 5878 5878 5877 5876 5875 5873 5872 5871 5870 5869 5868 5867 5865 5864 5863 5861 5860 5858 5856 5854 5853 5851 5849 5847 5845 5843 5840 5838 5836 5835 5833 5831 5829 5826 5824 5822 5819 5817 5816 5814 5812 5811
5874 5874 5873 5872 5871 5870 5869 5868 5867 5865 5865 5863 5862 5860 5859 5858 5856 5855 5853 5851 5849 5848 5846 5844 5842 5840 5837 5835 5832 5830 5828 5827 5825 5823 5820 5817 5815 5813 5810 5809 5807 5805 5803
5869 5869 5868 5867 5866 5865 5864 5863 5862 5861 5859 5858 5857 5855 5854 5853 5851 5850 5848 5846 5844 5842 5840 5838 5836 5834 5831 5828 5826 5823 5822 5820 5818 5815 5813 5810 5808 5806 5804 5802 5800 5798 5796
5863 5863 5862 5862 5861 5860 5859 5858 5857 5855 5854 5853 5851 5849 5848 5847 5846 5844 5843 5841 5839 5837 5834 5832 5830 5827 5824 5822 5819 5817 5815 5813 5810 5808 5805 5803 5801 5798 5797 5795 5793 5791 5789
5856 5856 5856 5855 5854 5854 5853 5851 5851 5849 5848 5847 5845 5844 5842 5841 5840 5838 5836 5834 5832 5830 5828 5825 5823 5820 5818 5815 5812 5810 5808 5805 5803 5801 5798 5796 5793 5791 5789 5787 5785 5783 5781
5849 5849 5849 5848 5847 5847 5846 5845 5843 5842 5841 5840 5839 5837 5835 5834 5833 5831 5829 5827 5825 5823 5821 5818 5816 5813 5811 5808 5805 5803 5800 5798 5795 5793 5790 5788 5785 5783 5781 5779 5777 5775 5772
5842 5841 5841 5840 5840 5839 5838 5837 5836 5835 5834 5833 5831 5830 5828 5827 5825 5824 5822 5820 5818 5816 5813 5811 5809 5806 5803 5800 5798 5795 5793 5790 5788 5785 5782 5780 5777 5775 5772 5770 5769 5766 5764
5834 5834 5833 5833 5832 5831 5830 5829 5828 5827 5826 5825 5823 5822 5821 5819 5818 5816 5814 5812 5811 5809 5806 5804 5801 5798 5796 5793 5790 5787 5785 5782 5779 5777 5774 5772 5769 5766 5764 5762 5760 5758 5755
5826 5825 5825 5824 5824 5823 5822 5821 5820 5819 5818 5816 5815 5814 5813 5811 5810 5808 5807 5805 5803 5801 5799 5796 5794 5791 5788 5785 5782 5780 5777 5774 5771 5769 5766 5763 5761 5758 5756 5754 5751 5749 5747
5816 5816 5815 5815 5814 5813 5812 5811 5810 5809 5808 5807 5806 5805 5804 5803 5801 5800 5798 5797 5795 5793 5791 5788 5786 5783 5780 5777 5775 5772 5769 5766 5764 5761 5758 5755 5753 5750 5748 5745 5743 5741 5739
5806 5805 5805 5805 5804 5803 5802 5801 5800 5799 5799 5798 5797 5796 5794 5793 5792 5791 5789 5788 5786 5784 5782 5780 5777 5774 5772 5769 5766 5764 5761 5758 5755 5752 5749 5747 5744 5742 5740 5737 5735 5733 5730
5796 5795 5795 5794 5794 5793 5792 5791 5790 5789 5789 5788 5787 5786 5784 5783 5783 5781 5780 5778 5777 5775 5772 5770 5768 5765 5763 5760 5758 5755 5753 5750 5746 5744 5741 5738 5735 5733 5731 5728 5726 5724 5721
Wind_Speed
8 9 9 8 8 7 7 6 5 5 6 5 5 5 5 5 5 6 6 6 6 6 5 6 6 6 6 5 5 5 6 6 6 6 6 6 7 7 8 8 9 8 8
7 8 7 7 7 7 6 5 5 5 5 4 4 4 5 5 5 6 6 6 7 6 6 6 6 7 7 7 6 6 6 7 7 7 7 8 8 8 9 9 10 10 10
6 7 7 7 6 6 5 4 4 4 5 4 4 4 5 5 5 6 7 7 7 7 7 7 7 7 7 7 7 7 7 7 8 8 9 9 10 10 10 10 10 10 11
6 6 7 7 8 6 5 5 4 5 5 6 5 5 5 5 5 6 7 8 8 7 7 8 8 8 8 8 9 9 9 9 9 9 10 10 10 11 11 11 11 12 12
6 6 6 7 7 6 6 5 5 5 5 6 6 6 5 5 6 7 8 9 9 8 8 9 9 10 10 10 11 11 10 10 10 11 11 11 12 12 11 11 12 13 13
6 5 6 6 6 6 6 6 5 6 6 6 7 7 6 6 7 8 9 9 9 9 10 11 10 11 11 12 12 12 11 11 11 12 12 12 12 13 12 12 12 13 13
6 5 5 6 6 6 7 6 6 7 7 8 8 8 6 7 7 9 10 10 10 10 11 11 12 12 13 13 13 13 13 13 13 13 13 13 13 13 13 13 13 13 13
7 7 7 7 7 6 7 7 8 7 8 8 8 7 8 8 8 9 10 11 11 12 12 12 13 14 14 13 13 14 14 14 13 13 13 13 13 14 14 14 13 13 14
8 8 8 7 7 7 8 8 8 8 8 8 8 9 10 10 10 10 12 12 12 13 13 14 15 14 14 14 14 14 14 14 13 14 14 14 15 15 15 16 15 15 14
10 9 9 8 8 8 9 9 9 9 9 9 9 10 11 11 11 12 13 13 14 14 14 15 15 14 14 14 14 14 15 14 15 15 15 16 17 17 17 17 17 17 17
12 12 11 10 9 10 10 10 10 10 10 11 11 12 12 13 13 13 13 14 14 15 15 15 15 15 15 16 16 16 16 16 16 16 17 18 18 18 18 19 19 19 19
13 13 12 11 11 11 11 12 12 12 12 12 12 12 13 13 13 14 14 14 14 15 15 15 16 16 17 18 18 17 18 17 17 18 19 19 20 19 20 20 21 21 21
15 14 13 13 13 13 13 14 14 14 14 13 14 14 14 13 14 14 15 15 15 16 16 17 17 17 18 18 18 18 18 18 19 20 21 21 21 21 21 22 22 22 22
15 15 15 15 15 15 15 15 15 14 15 16 15 15 15 15 15 15 16 17 17 17 17 18 18 19 19 19 19 19 19 19 20 21 22 22 23 23 23 23 23 23 23
17 17 16 16 16 17 17 17 17 17 17 16 16 17 17 16 16 17 17 18 18 18 19 19 20 21 21 21 20 20 20 21 22 23 24 24 24 24 24 24 24 24 24
19 19 18 19 19 19 18 19 18 18 18 18 19 19 19 18 17 17 18 19 20 21 21 21 21 22 23 23 23 22 22 23 24 24 24 25 25 25 25 25 25 25 25
21 21 21 21 21 20 20 20 20 20 20 21 21 20 19 18 18 18 20 21 21 22 22 23 23 23 24 24 24 24 24 25 26 25 25 26 26 26 26 26 26 26 26
22 22 22 22 23 22 22 23 23 22 22 23 23 21 20 19 20 21 21 22 23 23 24 24 24 24 24 25 25 25 26 26 27 27 27 27 27 27 27 26 26 27 27
24 23 24 24 24 24 24 24 24 24 24 24 24 24 23 22 22 23 24 24 25 25 25 25 25 25 25 26 26 26 26 27 27 27 28 28 28 28 28 27 28 28 28
25 25 26 26 26 26 26 25 25 25 25 25 25 25 25 25 25 26 26 26 26 26 26 26 26 26 27 27 27 27 27 28 28 28 28 28 28 28 28 28 27 27 28
27 27 27 27 27 27 28 27 27 28 28 27 27 27 27 27 27 27 28 28 27 27 27 27 27 27 27 27 28 28 28 29 28 28 28 28 28 28 28 28 28 28 28
29 29 29 30 30 30 30 30 30 30 29 29 28 28 28 29 28 29 29 29 28 27 27 27 27 27 28 28 28 28 29 29 28 28 28 28 29 29 29 29 29 29 29
31 32 31 32 32 32 32 32 31 31 30 30 30 29 30 30 30 29 29 29 28 28 28 28 28 28 29 29 29 29 29 29 28 28 29 29 29 29 29 29 29 29 29
33 33 33 34 34 34 33 33 32 33 32 31 31 31 31 31 31 31 30 30 30 30 30 30 30 30 30 30 30 30 29 29 29 29 30 30 30 29 29 30 30 30 30
33 33 33 34 33 33 33 33 33 34 34 33 32 32 32 32 31 31 31 31 31 31 31 31 31 31 31 31 31 31 30 31 30 30 30 30 30 30 30 31 31 31 30
33 33 32 33 33 33 33 34 33 33 33 33 32 32 32 31 31 31 31 31 32 32 32 32 32 32 32 32 31 31 31 31 31 31 30 30 29 30 31 31 30 30 31
Wind_Direction
36 34 36 40 42 45 46 50 53 50 47 43 38 37 31 23 19 13 7 359 356 351 342 336 336 335 332 331 323 319 306 296 298 300 298 303 307 304 303 300 301 301 300
24 29 30 32 37 41 40 42 44 40 36 27 18 16 14 13 13 8 1 350 346 344 337 333 331 330 332 334 331 331 318 304 302 297 295 298 303 304 299 295 292 294 297
12 14 16 18 21 24 24 28 27 25 22 12 8 7 5 4 4 358 350 344 338 335 338 336 328 330 332 332 329 327 321 311 305 300 296 294 295 298 295 290 287 290 293
358 359 3 4 2 3 5 6 6 1 356 351 352 358 2 353 346 342 342 342 339 333 330 330 328 326 324 320 318 316 315 311 307 304 300 295 296 295 294 291 288 288 289
337 341 343 351 353 351 349 350 349 341 343 343 339 341 347 344 340 338 337 336 335 333 329 325 321 319 312 309 310 310 307 308 307 304 301 297 293 292 289 291 289 290 290
318 325 328 332 341 343 334 334 335 330 325 324 322 320 326 330 330 330 329 331 330 329 327 324 320 316 310 307 305 304 303 303 303 302 299 297 293 291 287 287 288 290 290
301 306 313 317 327 330 324 315 320 323 314 310 311 312 317 323 325 325 324 325 324 322 321 319 315 313 310 307 306 304 302 300 298 298 298 296 294 291 287 285 285 286 287
286 294 303 309 316 321 319 317 318 322 320 320 325 319 320 319 318 318 319 320 319 318 317 314 310 309 308 306 305 305 302 300 297 296 299 297 295 293 292 288 285 285 285
281 288 295 301 308 311 315 318 315 315 317 316 318 318 319 316 312 312 316 315 314 315 313 312 312 310 310 308 305 305 303 300 300 299 298 300 296 292 291 289 286 287 287
284 285 290 296 302 306 310 314 312 307 305 305 308 309 310 309 306 309 314 314 311 309 308 307 309 310 310 311 309 306 305 301 301 301 302 304 301 294 292 290 288 289 290
282 287 291 294 301 305 302 303 306 306 307 305 303 302 303 302 301 303 307 308 306 305 307 308 307 308 308 307 307 306 303 301 300 300 300 301 303 300 293 291 290 290 290
278 280 284 288 296 299 297 296 297 301 306 303 305 306 304 304 302 301 302 304 305 306 308 310 310 308 306 303 302 301 301 298 298 300 300 299 298 298 295 293 291 290 289
276 276 280 287 293 296 293 293 291 292 297 301 301 302 302 303 302 300 301 304 307 308 308 307 305 304 303 302 300 299 299 297 297 299 300 299 296 296 295 293 291 290 290
274 277 281 286 290 292 290 290 291 292 297 301 298 298 299 299 298 299 299 300 302 304 304 305 304 303 303 300 298 297 298 298 298 299 300 299 298 296 294 292 290 288 289
271 274 278 282 286 288 288 288 289 292 294 296 297 298 298 296 296 297 299 299 299 301 302 303 303 303 304 303 299 295 295 297 297 297 298 298 298 297 295 293 290 288 288
271 272 274 278 282 285 285 286 285 289 291 292 295 295 293 292 298 302 303 302 300 300 302 303 303 301 302 304 300 295 293 295 296 295 296 297 297 296 295 293 290 288 288
272 272 274 277 281 284 284 285 283 285 287 289 290 289 290 292 296 299 302 303 302 301 302 302 302 302 302 302 302 298 295 295 297 298 297 296 296 297 295 293 291 289 289
270 270 271 273 278 281 284 283 283 284 286 289 290 288 289 291 294 297 300 301 302 302 302 302 302 301 301 301 302 301 299 299 298 297 297 297 296 295 294 293 291 291 292
272 272 273 274 275 278 281 283 286 287 288 290 289 288 289 289 292 296 298 299 299 300 301 301 302 301 301 301 302 301 301 300 299 299 298 297 295 294 294 293 292 293 294
272 274 275 275 277 278 280 283 286 288 289 289 288 289 289 289 290 293 295 296 297 299 300 300 301 301 301 301 301 301 301 300 300 299 299 297 295 293 293 293 293 294 294
271 273 275 277 279 280 282 284 287 289 289 287 286 287 289 289 290 291 293 295 296 298 299 299 300 301 300 300 300 300 300 301 300 299 298 297 297 294 294 293 292 293 294
272 274 275 276 277 280 282 284 286 287 288 287 286 286 286 287 288 290 291 293 295 296 298 298 299 299 300 300 301 301 301 301 299 298 297 296 295 295 294 293 292 293 293
271 272 274 275 277 279 281 282 284 285 286 286 285 285 285 285 286 288 289 291 293 294 296 298 298 298 299 300 301 301 301 301 299 298 296 294 294 294 294 293 293 292 293
273 272 273 275 277 279 280 281 283 284 284 284 283 284 284 283 284 285 286 288 290 292 294 296 296 296 297 298 299 300 300 300 299 298 296 295 295 293 293 293 293 292 292
274 273 273 275 276 277 279 280 281 281 282 282 282 283 283 282 282 284 285 287 289 291 292 293 294 295 295 296 296 297 299 299 300 300 298 295 295 293 293 292 291 291 291
274 274 273 273 275 276 277 278 279 280 280 280 281 283 282 280 280 282 284 286 288 290 291 293 293 294 295 295 295 297 298 298 299 300 299 295 293 292 293 293 292 292 292